Home > Weather > Kashgar > Past weeks

Flag for China Weather for the Past 2 Weeks in Kashgar, Xinjiang, China

Now
43 °F

Sunny.


Feels Like: 43 °F
Forecast: 23 / 44 °F
Wind: No wind

Location: Kashi Airport

Current Time: Feb 9, 2016 at 4:22:21 PM

Latest Report: Feb 9, 2016 at 3:00 PM


Visibility: 10 mi

Pressure: 29.92 "Hg (25.52 "Hg at 1298m altitude)

Humidity: 34%

Dew point: 16 °F

Location of KashgarLocation

Historic Weather in Kashgar — Graph

°F

Kashgar Temperature Yesterday

Maximum temperature yesterday: 41 °F (at 5:00 PM)
Minimum temperature yesterday: 21 °F (at 9:00 AM)
Average temperature yesterday: 30 °F

High & Low Weather Summary for the Past Weeks

 TemperatureHumidityPressure
High43 °F (Feb 9, 3:00 PM)93% (Jan 30, 10:00 PM)30.69 "Hg (Jan 30, 10:00 PM)
Low12 °F (Jan 26, 3:00 AM)33% (Feb 8, 6:00 PM)29.92 "Hg (Feb 9, 3:00 PM)
Average24 °F71%30.26 "Hg
* Reported Jan 25 3:00 PM — Feb 9 3:00 PM, Kashgar, Weather by CustomWeather, © 2016

Note: Actual official high and low records may vary slightly from our data, if they occured in-between our weather recording intervals... More about our weather records

Advertising

Kashgar Weather History for the Previous 24 Hours

 ConditionsComfort  
Time TempWeatherWind HumidityBarometerVisibility
3:00 PM
Tue, Feb 9
43 °FSunny.No wind34%29.92 "Hg10 mi
2:00 PM39 °FSunny.No wind39%29.98 "Hg10 mi
1:00 PM39 °FSunny.No wind42%29.98 "Hg10 mi
12:00 PM32 °FSunny.3 mph60%30.01 "Hg10 mi
11:00 AM27 °FSunny.8 mph69%30.01 "Hg10 mi
10:00 AM25 °FSunny.10 mph69%29.98 "Hg10 mi
9:00 AM25 °FClear.10 mph69%29.98 "Hg10 mi
8:00 AM27 °FClear.8 mph64%29.98 "Hg10 mi
7:00 AM27 °FClear.8 mph69%29.98 "Hg10 mi
6:00 AM27 °FClear.8 mph69%29.98 "Hg10 mi
5:00 AM27 °FClear.8 mph69%30.01 "Hg10 mi
4:00 AM28 °FClear.10 mph64%30.01 "Hg10 mi
3:00 AM28 °FClear.10 mph64%30.04 "Hg10 mi
2:00 AM28 °FClear.8 mph69%30.04 "Hg10 mi
1:00 AM30 °FChilly.1 mph64%30.07 "Hg6 mi
12:00 AM32 °FClear.3 mph60%30.04 "Hg10 mi
11:00 PM
Mon, Feb 8
32 °FClear.3 mph60%30.04 "Hg6 mi
10:00 PM34 °FClear.No wind56%30.04 "Hg6 mi
9:00 PM37 °FClear.No wind41%30.04 "Hg10 mi
8:00 PM37 °FSunny.1 mph41%30.04 "Hg10 mi
7:00 PM39 °FClear.3 mph39%30.04 "Hg6 mi
6:00 PM41 °FClear.1 mph33%30.04 "Hg6 mi
5:00 PM41 °FClear.3 mph36%30.04 "Hg6 mi
4:00 PM39 °FClear.3 mph36%30.07 "Hg5 mi
Weather by CustomWeather, © 2016

See weather overviewHow to use our weather pages